CZ-6A DEB, 57579

Orbit data source: Space-Track

CZ-6A DEB, 57579 is space debris in SSO originally from a launch on Fri, 11 Nov 2022 UTC launched from the Taiyaun Space Center, China (TSC). Debris objects in space refer to the collection of defunct objects orbiting the Earth. Examples of debris include non-operational satellites, rocket bodies, and fragments generated from explosions, collisions, or faulty payload assembly.

Loading next visibility...
Identifier
57579, 2022-151AHW
Orbit
SSO
Country
Flag of CNCN / PRC
Related business
Manufacturer
SAST
Mission
Spacecraft
Bus & Motor
Unknown
Mass
Unknown
Launch date (UTC)
2022-11-11 (4 years ago)
Launch vehicle
Unknown
Launch site
Taiyaun Space Center, China (TSC)
Object type
Payload
Rocket body
Debris
Shape & HBR
Unknown shape, 0.1 m
Radar Cross Section
Small (<0.1 m²)

Expand to show TLE details & history
Last TLE update: 1 day ago

TLE from 1 day ago
0 CZ-6A DEB
1 57579U 22151AHW 26234.78218789  .00001194  00000-0  52552-3 0  9998
2 57579  98.7535 251.6240 0025036 134.6580 225.6646 14.25171824172955
Epoch: 2026-08-22T18:46Z
TLE epoch observation values (Epoch: 2026-08-22T18:46:21.033Z)
Latitude
0.00001°
Longitude
-1.0513°
Altitude
823.434 km
Speed
7.435 km/s
True Right ascension
16h 46m 29s
True Declination
0° 00' 00"
Sunlit
Object was in daylight at epoch
Visualization orbit readout
Latitude
Unknown
Longitude
Unknown
Altitude
Unknown
Speed
Unknown
Apparent Right ascension
Unknown
Apparent Declination
Unknown
Sunlit
N/A
Visualization observer readout
Local Sidereal Time
20:45:42
Azimuth
Unknown
Elevation
Unknown
Doppler factor
Unknown
Orbital elements
Apogee altitude
823.053 km
Perigee altitude
787.085 km
Semi-major axis
7,183.206 km
Eccentricity
0.0025
Inclination
98.7535°
RAAN
251.624°
Arg. of periapsis
134.658°
True anomaly
225.45985°
Mean anomaly
225.6646°
Eccentric anomaly
225.56218°
Mean motion
3.56505 °/min
Orbital period
100.98 mins
BSTAR
0.00052552
Loading maneuver chart data...
Computing Atmospheric mass density...
Loading historical data...
Loading historical data...
Loading historical data...
Loading historical data...
Loading historical data...
Loading historical data...
Loading historical data...

Documentation

Showing up to 5 results
|